Sign In / Sign Up
 
 
Wind Of Changes Regatta. Leg 3. 13/04 - 19/04



Race Date (UTC) # I place II place III place Track
Race5090 2015-04-18 02:42:49 2 cricola scica
Race5089 2015-04-18 02:40:32 8 Fancy VDS 3562 J122
Race5088 2015-04-18 02:39:08 2 Avenger VDS 3562
Race5087 2015-04-18 02:37:38 4 Cormoran Team o ooooooo
Race5086 2015-04-18 02:34:02 8 Fancy J122 Widget 107
Race5085 2015-04-18 02:32:28 8 VDS 3562 Whammer Jammer Avenger
Race5084 2015-04-18 02:31:19 3 VDS 3562 SPOILER ooooooo
Race5083 2015-04-18 02:30:35 2 Cormoran Team Kiwi Magic
Race5082 2015-04-18 02:28:17 5 J122 Widget 107 Fabrizio
Race5081 2015-04-18 02:24:47 7 Avenger jamoncrudox15 o
Race5080 2015-04-18 02:23:01 4 platoon Fabrizio your wish
Race5079 2015-04-18 02:19:56 8 Widget 107 Whammer Jammer Blue Forest
Race5078 2015-04-18 02:19:15 2 jamoncrudox15 IIIsum
Race5077 2015-04-18 02:17:02 7 platoon ooooooo o
Race5076 2015-04-18 02:14:06 4 J122 Avenger ruben
Race5075 2015-04-18 02:12:12 3 jamoncrudox15 IIIsum Cormoran Team
Race5074 2015-04-18 02:10:39 8 ooooooo o SAIL ON
Race5073 2015-04-18 02:09:46 2 BRABO Avenger
Race5072 2015-04-18 02:08:35 4 J122 F.Y.F.S.U.S.A Catch the wave😂😂😂
Race5071 2015-04-18 02:06:18 2 o SABAO
Race5070 2015-04-18 02:04:39 4 Widget 107 IIIsum BRABO
Race5069 2015-04-18 02:03:02 8 Chipao Alea SAIL ON
Race5068 2015-04-18 02:02:09 2 SABAO Kiwi Magic
Race5067 2015-04-18 02:00:36 2 F.Y.F.S.U.S.A Kiwi Magic
Race5066 2015-04-18 01:53:22 8 Max CVR Avenger Fabrizio
Race5065 2015-04-18 01:51:19 2 Avenger Kiwi Magic
Race5064 2015-04-18 01:47:33 7 J122 SAIL ON Moody Hunter
Race5062 2015-04-18 01:44:52 2 Kiwi Magic Avenger
Race5061 2015-04-18 01:41:24 5 J122 platoon Chipao
Race5060 2015-04-18 01:40:08 8 Fabrizio SAIL ON Fede Travascio
Race5059 2015-04-18 01:35:50 2 El Moskito berimbau
Race5058 2015-04-18 01:27:34 8 Fabrizio Chipao SAIL ON
Race5057 2015-04-18 01:24:46 8 J122 Kiwi Magic RELAX
Race5056 2015-04-18 01:21:54 3 kraken Max CVR SPANK
Race5055 2015-04-18 01:18:58 5 Kiwi Magic Fabrizio Chipao
Race5054 2015-04-18 01:13:01 8 J122 Whammer Jammer GypsyBaron
Race5053 2015-04-18 01:10:32 2 Kiwi Magic IIIsum
Race5052 2015-04-18 01:06:42 8 Fabrizio GypsyBaron J122
Race5051 2015-04-18 01:03:26 8 Whammer Jammer A Day Late And A Monkey Short Kiwi Magic
Race5050 2015-04-18 01:01:09 6 GypsyBaron 7oo7 ITA764
Race5049 2015-04-18 00:59:37 2 laserkr Mad Max
Race5048 2015-04-18 00:58:04 2 Shardana SRDN Mad Max
Race5047 2015-04-18 00:56:52 3 Laser ASAHI PakoPako wakkyyamayama
Race5046 2015-04-18 00:52:54 8 tempete GypsyBaron ITA764
Race5045 2015-04-18 00:50:50 2 tempete hemo
Race5044 2015-04-18 00:48:47 8 sgurz sever GypsyBaron
Race5043 2015-04-18 00:46:45 4 nicosam7 laserkr Cormoran Team
Race5042 2015-04-18 00:45:35 2 tempete El Moskito
Race5041 2015-04-18 00:44:19 2 VDS 3562 gg
Race5040 2015-04-18 00:41:33 8 sgurz TRICK sever
Race5039 2015-04-18 00:40:41 2 mada972 laserkr
Race5038 2015-04-18 00:39:10 3 tempete STERVA ~~~~~
Race5037 2015-04-18 00:38:05 2 Chipao gg
Race5036 2015-04-18 00:36:43 4 Protocol 4321 TRICK mada972
Race5035 2015-04-18 00:34:32 7 loco El Moskito yin_YANG
Race5034 2015-04-18 00:33:11 5 tempete ~~~~~ gg
Race5033 2015-04-18 00:31:57 3 Chipao cape horn gg
Race5032 2015-04-18 00:30:25 6 TRICK Protocol 4321 blew by u
Race5031 2015-04-18 00:29:28 2 Chipao baguettau
Race5030 2015-04-18 00:28:04 8 TORNADO sgurz yin_YANG
Race5029 2015-04-18 00:26:01 4 tempete ~~~~~ laserkr
Race5028 2015-04-18 00:23:47 7 Blue Forest Protocol 4321 platoon
Race5027 2015-04-18 00:21:37 8 TORNADO sever sgurz
Race5026 2015-04-18 00:20:28 8 Wali9 ~~~~~ llhnumhs
Race5025 2015-04-18 00:18:22 5 tempete mada972 JULEPE
Race5024 2015-04-18 00:17:32 2 INFABBRICA porteuru335
Race5023 2015-04-18 00:16:17 8 sgurz TORNADO STERVA
Race5022 2015-04-18 00:13:25 7 Fancy Wali9 Max CVR
Race5021 2015-04-18 00:11:36 8 tempete laserkr JULEPE
Race5020 2015-04-18 00:09:53 8 sever sgurz TORNADO
Race5019 2015-04-18 00:08:20 3 A Day Late And A Monkey Short porteuru335 El Moskito
Race5018 2015-04-18 00:06:04 8 Fancy tempete llhnumhs
Race5017 2015-04-18 00:02:41 8 sgurz TORNADO sever
Race5016 2015-04-18 00:01:21 2 El Moskito porteuru335
Race5015 2015-04-17 23:58:14 6 Fancy JULEPE tempete
Race5014 2015-04-17 23:56:14 8 sever sgurz TORNADO
Race5013 2015-04-17 23:52:31 8 J122 Fancy tempete
Race5012 2015-04-17 23:51:03 8 TORNADO sgurz Kuka
Race5011 2015-04-17 23:48:34 4 Promienisty DEX39 HoweSoft
Race5010 2015-04-17 23:46:50 8 J122 Fancy tempete
Race5009 2015-04-17 23:45:39 8 TORNADO sever sgurz
Race5008 2015-04-17 23:43:47 5 Trieste SABAO VADASOLA1
Race5007 2015-04-17 23:42:04 2 DEX39 Promienisty
Race5006 2015-04-17 23:40:06 8 King Kanga SV tempete
Race5005 2015-04-17 23:38:34 8 TORNADO sever GypsyBaron
Race5004 2015-04-17 23:36:49 2 77thJSOC DEX39
Race5003 2015-04-17 23:33:39 8 MIKE llhnumhs Fancy
Race5002 2015-04-17 23:31:48 8 SV TORNADO sever
Race5001 2015-04-17 23:29:43 3 xR3 Jap470 DEX39
Race5000 2015-04-17 23:27:55 3 juampi 3028 Promienisty VTLZ
Race4999 2015-04-17 23:25:40 8 zvezdochka Chase32 GypsyBaron
Race4998 2015-04-17 23:25:10 8 Blue Forest PISKAREV GALOPIN SB3324RUS SV
Race4997 2015-04-17 23:23:33 5 Pi DEX39 HappySailing
Race4996 2015-04-17 23:22:02 3 juampi 3028 gg GypsyBaron
Race4995 2015-04-17 23:19:46 5 Newcastle 101 sever Chase32
Race4994 2015-04-17 23:18:36 8 Blue Forest 77thJSOC SV
Race4993 2015-04-17 23:17:20 3 zvezdochka Pi DEX39
Race4992 2015-04-17 23:15:46 2 juampi 3028 Mad Max
Race4991 2015-04-17 23:14:20 5 ZDAMEN Chase32 Miles Davis
Race4990 2015-04-17 23:11:52 8 VINC xR3 Blue Forest